Weather History for Wise, VA

Change the Weather History Date:

Monday, March 19, 2012

  Actual Average Record
Temperature  
Mean Temperature 66 °F -  
Max Temperature 78 °F 51 °F 78 °F (2012)
Min Temperature 53 °F 32 °F 21 °F (2006)
Growing Degree Days 16 (Base 50)    
Moisture  
Dew Point 52 °F    
Average Humidity 65    
Maximum Humidity 100    
Minimum Humidity 39    
Precipitation  
Precipitation 0.00 in - - ()
Sea Level Pressure  
Sea Level Pressure 30.23 in    
Wind  
Wind Speed 5 mph (SW)    
Max Wind Speed 9 mph    
Max Gust Speed -    
Visibility 10 miles    
Events      
Averages and records for this station are not official NWS values.
T = Trace of Precipitation, MM = Missing Value Source: NWS Daily Summary

Daily Weather History Graph

Daily Weather History Graph

Search for Another Location

Airport:

Trip Planner

Search our weather history database for the weather conditions in past years. The results will help you decide how hot, cold, wet, or windy it might be!

Date:

Astronomy

Mar. 19, 2012 Rise Set
Actual Time 7:34 AM EDT 7:41 PM EDT
Civil Twilight 7:08 AM EDT 8:07 PM EDT
Nautical Twilight 6:38 AM EDT 8:37 PM EDT
Astronomical Twilight 6:07 AM EDT 9:08 PM EDT
Moon 5:42 AM EDT (3/19) 5:11 PM EDT (3/19)
Length of Visible Light 12h 58m
Length of Day
12h 07m
Waning Crescent, 8% of the Moon is Illuminated
Mar 19
Waning Crescent
Mar 22
New
Mar 30
First Quarter
Apr 6
Full
Apr 13
Last Quarter

Hourly Weather History & Observations

Time (EDT) Temp. Dew Point Humidity Pressure Visibility Wind Dir Wind Speed Gust Speed Precip Events Conditions
12:15 AM 60.8 °F 53.6 °F 77% 30.24 in 10.0 mi SSW 5.8 mph - N/A   Clear
12:35 AM 60.8 °F 53.6 °F 77% 30.24 in 10.0 mi SSW 5.8 mph - N/A   Clear
1:15 AM 59.0 °F 53.6 °F 82% 30.23 in 10.0 mi SW 5.8 mph - N/A   Clear
1:35 AM 59.0 °F 53.6 °F 82% 30.23 in 10.0 mi SSW 4.6 mph - N/A   Clear
1:55 AM 59.0 °F 53.6 °F 82% 30.23 in 10.0 mi SSW 4.6 mph - N/A   Clear
2:15 AM 59.0 °F 53.6 °F 82% 30.23 in 10.0 mi SSW 3.5 mph - N/A   Clear
2:35 AM 59.0 °F 53.6 °F 82% 30.23 in 10.0 mi SSW 3.5 mph - N/A   Clear
2:55 AM 59.0 °F 53.6 °F 82% 30.23 in 10.0 mi SSW 4.6 mph - N/A   Clear
3:15 AM 59.0 °F 53.6 °F 82% 30.23 in 10.0 mi SSW 4.6 mph - N/A   Clear
3:35 AM 55.4 °F 53.6 °F 94% 30.23 in 10.0 mi SW 5.8 mph - N/A   Clear
4:15 AM 55.4 °F 53.6 °F 94% 30.22 in 10.0 mi WSW 5.8 mph - N/A   Clear
4:35 AM 55.4 °F 53.6 °F 94% 30.22 in 10.0 mi SW 6.9 mph - N/A   Clear
4:55 AM 55.4 °F 53.6 °F 94% 30.22 in 10.0 mi SW 4.6 mph - N/A   Clear
5:15 AM 53.6 °F 53.6 °F 100% 30.22 in 10.0 mi SSW 4.6 mph - N/A   Clear
5:35 AM 55.4 °F 55.4 °F 100% 30.23 in 10.0 mi SSW 4.6 mph - N/A   Clear
5:55 AM 55.4 °F 55.4 °F 100% 30.23 in 10.0 mi South 3.5 mph - N/A   Clear
6:15 AM 59.0 °F 53.6 °F 82% 30.23 in 10.0 mi Calm Calm - N/A   Clear
6:35 AM 57.2 °F 53.6 °F 88% 30.23 in 10.0 mi SW 3.5 mph - N/A   Clear
6:55 AM 55.4 °F 53.6 °F 94% 30.23 in 10.0 mi SW 4.6 mph - N/A   Clear
7:15 AM 57.2 °F 53.6 °F 88% 30.23 in 10.0 mi SW 3.5 mph - N/A   Clear
7:35 AM 55.4 °F 53.6 °F 94% 30.24 in 10.0 mi SSW 3.5 mph - N/A   Clear
8:15 AM 55.4 °F 53.6 °F 94% 30.26 in 10.0 mi SSW 3.5 mph - N/A   Clear
8:35 AM 57.2 °F 53.6 °F 88% 30.26 in 10.0 mi Calm Calm - N/A   Clear
9:15 AM 62.6 °F 55.4 °F 77% 30.27 in 10.0 mi Calm Calm - N/A   Clear
9:35 AM 64.4 °F 55.4 °F 73% 30.28 in 10.0 mi Calm Calm - N/A   Clear
9:55 AM 64.4 °F 55.4 °F 73% 30.28 in 10.0 mi WSW 3.5 mph - N/A   Clear
10:15 AM 66.2 °F 53.6 °F 64% 30.28 in 10.0 mi WSW 3.5 mph - N/A   Clear
10:35 AM 68.0 °F 53.6 °F 60% 30.29 in 10.0 mi WSW 5.8 mph - N/A   Clear
10:55 AM 69.8 °F 53.6 °F 56% 30.29 in 10.0 mi SW 5.8 mph - N/A   Clear
11:15 AM 69.8 °F 51.8 °F 53% 30.28 in 10.0 mi WSW 6.9 mph - N/A   Clear
11:35 AM 69.8 °F 51.8 °F 53% 30.28 in 10.0 mi WSW 6.9 mph - N/A   Clear
11:55 AM 71.6 °F 51.8 °F 50% 30.28 in 10.0 mi SW 4.6 mph - N/A   Clear
12:15 PM 71.6 °F 51.8 °F 50% 30.27 in 10.0 mi WSW 6.9 mph - N/A   Clear
12:35 PM 73.4 °F 51.8 °F 47% 30.27 in 10.0 mi SW 6.9 mph - N/A   Scattered Clouds
12:55 PM 73.4 °F 50.0 °F 44% 30.27 in 10.0 mi NW 5.8 mph - N/A   Mostly Cloudy
1:15 PM 71.6 °F 50.0 °F 46% 30.26 in 10.0 mi Calm Calm - N/A   Scattered Clouds
1:35 PM 73.4 °F 50.0 °F 44% 30.25 in 10.0 mi WSW 5.8 mph - N/A   Clear
1:55 PM 75.2 °F 50.0 °F 41% 30.24 in 10.0 mi Calm Calm - N/A   Clear
2:15 PM 75.2 °F 50.0 °F 41% 30.23 in 10.0 mi WNW 3.5 mph - N/A   Clear
2:35 PM 77.0 °F 50.0 °F 39% 30.23 in 10.0 mi SSW 4.6 mph - N/A   Clear
2:55 PM 73.4 °F 51.8 °F 47% 30.22 in 10.0 mi SSW 3.5 mph - N/A   Scattered Clouds
3:15 PM 73.4 °F 51.8 °F 47% 30.21 in 10.0 mi West 4.6 mph - N/A   Mostly Cloudy
3:35 PM 73.4 °F 51.8 °F 47% 30.21 in 10.0 mi WNW 4.6 mph - N/A   Overcast
3:55 PM 78.8 °F 51.8 °F 39% 30.19 in 10.0 mi WSW 8.1 mph - N/A   Mostly Cloudy
4:15 PM 77.0 °F 51.8 °F 41% 30.19 in 10.0 mi WNW 3.5 mph - N/A   Mostly Cloudy
4:35 PM 77.0 °F 50.0 °F 39% 30.18 in 10.0 mi South 6.9 mph - N/A   Scattered Clouds
4:55 PM 77.0 °F 50.0 °F 39% 30.18 in 10.0 mi West 6.9 mph - N/A   Clear
5:15 PM 77.0 °F 51.8 °F 41% 30.17 in 10.0 mi West 5.8 mph - N/A   Clear
5:35 PM 77.0 °F 51.8 °F 41% 30.17 in 10.0 mi WSW 6.9 mph - N/A   Clear
5:55 PM 75.2 °F 51.8 °F 44% 30.17 in 10.0 mi SW 4.6 mph - N/A   Clear
6:15 PM 75.2 °F 50.0 °F 41% 30.18 in 10.0 mi Calm Calm - N/A   Scattered Clouds
6:35 PM 73.4 °F 50.0 °F 44% 30.18 in 10.0 mi Calm Calm - N/A   Scattered Clouds
6:55 PM 73.4 °F 48.2 °F 41% 30.18 in 10.0 mi South 9.2 mph - N/A   Mostly Cloudy
7:15 PM 73.4 °F 50.0 °F 44% 30.19 in 10.0 mi South 8.1 mph - N/A   Mostly Cloudy
7:35 PM 69.8 °F 50.0 °F 49% 30.20 in 10.0 mi South 5.8 mph - N/A   Overcast
7:55 PM 69.8 °F 50.0 °F 49% 30.20 in 10.0 mi South 4.6 mph - N/A   Mostly Cloudy
8:15 PM 69.8 °F 50.0 °F 49% 30.20 in 10.0 mi SSE 5.8 mph - N/A   Scattered Clouds
8:35 PM 69.8 °F 51.8 °F 53% 30.21 in 10.0 mi South 4.6 mph - N/A   Clear
8:55 PM 66.2 °F 51.8 °F 60% 30.21 in 10.0 mi South 4.6 mph - N/A   Clear
9:15 PM 68.0 °F 51.8 °F 56% 30.21 in 10.0 mi SSW 4.6 mph - N/A   Clear
9:35 PM 66.2 °F 51.8 °F 60% 30.21 in 10.0 mi South 3.5 mph - N/A   Clear
9:55 PM 66.2 °F 51.8 °F 60% 30.22 in 10.0 mi Calm Calm - N/A   Clear
10:15 PM 66.2 °F 51.8 °F 60% 30.22 in 10.0 mi South 3.5 mph - N/A   Clear
10:35 PM 64.4 °F 51.8 °F 64% 30.21 in 10.0 mi SSW 4.6 mph - N/A   Clear
10:55 PM 62.6 °F 51.8 °F 68% 30.21 in 10.0 mi South 5.8 mph - N/A   Clear
11:15 PM 62.6 °F 50.0 °F 63% 30.21 in 10.0 mi South 4.6 mph - N/A   Clear
11:35 PM 62.6 °F 50.0 °F 63% 30.21 in 10.0 mi South 3.5 mph - N/A   Clear
11:55 PM 62.6 °F 50.0 °F 63% 30.21 in 10.0 mi South 3.5 mph - N/A   Clear